GW3809 Weather Reports


Display with metric or nautical units.
time (UTC)temp
F
wind
direction
speed
MPH
gust
MPH
rain 1hr
in
rain 24hr
in
rain mn
in
humidity
%
barometer
mb
20260502223511 73 66 3.0 7.0 0.00 0.01 0.01 59 1019.9
20260502223009 73 18 4.0 7.0 0.00 0.01 0.01 60 1020.0
20260502222506 73 51 7.0 8.0 0.00 0.01 0.01 60 1020.1
20260502222002 73 3 4.0 7.0 0.00 0.01 0.01 60 1019.9
20260502221458 73 52 6.0 11.0 0.00 0.01 0.01 58 1020.1
20260502220955 74 76 2.0 7.0 0.00 0.01 0.01 59 1020.2
20260502220450 74 28 6.0 11.0 0.00 0.01 0.01 59 1020.1
20260502215948 74 50 6.0 6.0 0.00 0.01 0.01 59 1020.1
20260502215445 74 23 5.0 14.0 0.00 0.01 0.01 61 1020.2
20260502214942 74 34 4.0 9.0 0.00 0.01 0.01 57 1020.1
20260502214439 75 37 3.0 6.0 0.00 0.01 0.01 60 1020.4
20260502213936 74 58 6.0 9.0 0.00 0.01 0.01 59 1020.2
20260502213432 75 31 6.0 9.0 0.00 0.01 0.01 60 1020.3
20260502212931 73 51 3.0 6.0 0.00 0.01 0.01 62 1020.3
20260502212430 73 27 7.0 8.0 0.00 0.01 0.01 60 1020.4
20260502211927 74 31 5.0 11.0 0.00 0.01 0.01 60 1020.0
20260502211422 74 18 5.0 16.0 0.00 0.01 0.01 61 1020.4
20260502210920 75 35 8.0 8.0 0.00 0.01 0.01 60 1020.4
20260502210417 74 16 4.0 10.0 0.00 0.01 0.01 61 1020.6
20260502205914 73 358 3.0 10.0 0.00 0.01 0.01 63 1020.5
20260502205410 74 30 3.0 9.0 0.00 0.01 0.01 62 1020.6
20260502204907 74 5 2.0 10.0 0.00 0.01 0.01 62 1020.7
20260502204404 73 16 3.0 9.0 0.00 0.01 0.01 65 1020.7
20260502203902 73 28 6.0 11.0 0.00 0.01 0.01 63 1020.9
20260502203359 73 20 3.0 12.0 0.00 0.01 0.01 62 1020.9
20260502202854 73 334 7.0 9.0 0.00 0.01 0.01 63 1020.8
20260502202352 74 27 4.0 10.0 0.00 0.01 0.01 64 1020.8
20260502201850 73 28 3.0 10.0 0.00 0.01 0.01 65 1020.8
20260502201346 72 336 5.0 11.0 0.00 0.01 0.01 66 1020.9
20260502200842 72 346 8.0 8.0 0.00 0.01 0.01 65 1021.2
20260502200338 72 48 6.0 6.0 0.00 0.01 0.01 69 1021.2
20260502195836 71 7 7.0 11.0 0.00 0.01 0.01 67 1021.3
20260502195333 72 20 4.0 10.0 0.00 0.01 0.01 65 1021.3
20260502194829 70 350 3.0 8.0 0.00 0.01 0.01 71 1021.3
20260502194326 70 39 5.0 12.0 0.00 0.01 0.01 68 1021.3
20260502193822 70 339 3.0 8.0 0.00 0.01 0.01 68 1021.5
20260502193320 70 349 6.0 7.0 0.00 0.01 0.01 69 1021.2
20260502192815 70 345 4.0 11.0 0.00 0.01 0.01 68 1021.5
20260502192312 70 355 3.0 10.0 0.00 0.01 0.01 69 1021.4
20260502191810 70 65 5.0 9.0 0.00 0.01 0.01 68 1021.5
20260502191307 69 30 4.0 11.0 0.00 0.01 0.01 70 1021.6
20260502190804 69 354 8.0 12.0 0.00 0.01 0.01 70 1021.6
20260502190301 69 328 9.0 10.0 0.00 0.01 0.01 71 1021.7
20260502185756 69 355 7.0 10.0 0.00 0.01 0.01 70 1021.6
20260502185253 68 326 10.0 13.0 0.00 0.01 0.01 72 1021.6
20260502184749 69 31 6.0 10.0 0.00 0.01 0.01 70 1021.8
20260502184245 69 32 6.0 9.0 0.00 0.01 0.01 70 1021.6
20260502183743 69 8 3.0 9.0 0.00 0.01 0.01 71 1022.0
20260502183238 68 355 6.0 11.0 0.00 0.01 0.01 71 1021.9
20260502182733 68 13 6.0 13.0 0.00 0.01 0.01 72 1021.7
20260502182224 68 357 4.0 15.0 0.00 0.01 0.01 70 1021.8
20260502181720 69 2 4.0 7.0 0.00 0.01 0.01 71 1022.0
20260502181219 68 323 6.0 11.0 0.00 0.01 0.01 73 1021.8
20260502180716 67 30 4.0 11.0 0.00 0.01 0.01 73 1022.1
20260502180214 67 345 10.0 11.0 0.00 0.01 0.01 72 1022.3
20260502170132 65 351 5.0 12.0 0.00 0.01 0.01 76 1022.6
20260502164119 63 353 4.0 9.0 0.00 0.01 0.01 78 1022.6
20260502163615 63 13 7.0 11.0 0.00 0.01 0.01 78 1022.6
20260502163112 63 349 6.0 12.0 0.00 0.01 0.01 78 1022.4
20260502162608 63 18 8.0 11.0 0.00 0.01 0.01 79 1022.5
20260502162105 63 336 6.0 10.0 0.00 0.01 0.01 79 1022.7
20260502161602 63 23 6.0 11.0 0.00 0.01 0.01 80 1022.7
20260502161059 62 9 3.0 8.0 0.00 0.01 0.01 81 1022.6
20260502160558 62 336 5.0 7.0 0.00 0.01 0.01 81 1022.6
20260502152010 61 356 8.0 11.0 0.00 0.01 0.01 81 1022.3
20260502151507 61 332 9.0 10.0 0.00 0.01 0.01 81 1022.3
20260502151004 60 356 6.0 13.0 0.00 0.01 0.01 81 1022.1
20260502150501 60 303 9.0 10.0 0.00 0.01 0.01 81 1022.1
20260502130346 61 348 8.0 9.0 0.00 0.01 0.01 85 1020.4
20260502123329 61 18 2.0 8.0 0.00 0.01 0.01 86 1020.0
20260502122826 61 1 7.0 12.0 0.00 0.01 0.01 86 1019.8
20260502122321 60 357 5.0 9.0 0.00 0.01 0.01 86 1019.7
20260502121821 60 354 6.0 9.0 0.00 0.01 0.01 86 1019.4
20260502121318 60 30 4.0 12.0 0.00 0.01 0.01 85 1019.6
20260502120814 60 343 8.0 10.0 0.00 0.01 0.01 86 1019.5
20260502120311 60 327 6.0 14.0 0.00 0.01 0.01 85 1019.5
20260502115809 60 344 11.0 13.0 0.00 0.01 0.01 85 1019.4
20260502115306 60 0 6.0 10.0 0.00 0.01 0.01 86 1019.4
20260502114801 60 332 3.0 5.0 0.00 0.01 0.01 86 1019.1
20260502114258 61 355 6.0 9.0 0.00 0.01 0.01 86 1018.8
20260502113755 60 5 5.0 10.0 0.00 0.01 0.01 86 1019.0
20260502113253 60 2 5.0 12.0 0.00 0.01 0.01 85 1018.7
20260502112751 60 9 6.0 10.0 0.00 0.01 0.01 86 1018.5
20260502112249 60 358 7.0 10.0 0.00 0.01 0.01 86 1018.5
20260502111745 60 15 7.0 10.0 0.00 0.01 0.01 85 1018.8
20260502111243 61 8 6.0 10.0 0.00 0.01 0.01 85 1018.5
20260502110740 61 31 5.0 14.0 0.00 0.01 0.01 85 1018.4
20260502110238 61 351 6.0 13.0 0.00 0.01 0.01 86 1018.3
20260502105736 61 346 3.0 10.0 0.00 0.01 0.01 86 1018.1
20260502105232 61 0 9.0 13.0 0.00 0.01 0.01 85 1018.0
20260502104730 61 329 5.0 14.0 0.00 0.01 0.01 85 1017.8
20260502104227 61 350 9.0 12.0 0.00 0.01 0.01 86 1017.7
20260502103725 61 336 6.0 12.0 0.00 0.01 0.01 86 1017.9
20260502103222 61 4 4.0 15.0 0.00 0.01 0.01 86 1017.7
20260502102719 61 356 8.0 8.0 0.00 0.01 0.01 86 1017.7
20260502102215 61 0 2.0 8.0 0.00 0.01 0.01 86 1018.0
20260502101714 61 334 9.0 10.0 0.00 0.01 0.01 86 1017.9
20260502101212 61 75 9.0 13.0 0.00 0.01 0.01 86 1017.6
20260502100709 61 38 3.0 9.0 0.00 0.01 0.01 86 1017.7
20260502100208 61 27 9.0 12.0 0.00 0.01 0.01 86 1017.6
20260502091142 62 343 6.0 12.0 0.00 0.01 0.01 87 1017.4
20260502090639 62 343 6.0 18.0 0.00 0.01 0.01 87 1017.2
20260502090136 62 344 8.0 11.0 0.00 0.01 0.01 88 1017.0
20260502071533 63 350 14.0 18.0 0.00 0.00 0.00 85 1015.7
20260502071026 63 2 13.0 21.0 0.00 0.00 0.00 84 1015.6
20260502070524 64 349 15.0 16.0 0.00 0.00 0.00 84 1016.0
20260502070022 64 348 12.0 18.0 0.00 0.00 0.00 84 1016.2
20260502065520 64 354 11.0 17.0 0.00 0.00 0.00 84 1016.1
20260502065017 64 24 6.0 19.0 0.00 0.00 0.00 84 1016.0
20260502064516 64 5 8.0 14.0 0.00 0.00 0.00 84 1016.0
20260502064012 64 358 6.0 19.0 0.00 0.00 0.00 84 1016.3
20260502063510 64 359 16.0 17.0 0.00 0.00 0.00 84 1016.3
20260502063008 64 3 8.0 21.0 0.00 0.00 0.00 84 1016.3
20260502062504 64 356 12.0 15.0 0.00 0.00 0.00 84 1016.2
20260502062003 64 350 7.0 17.0 0.00 0.00 0.00 84 1016.2
20260502061501 64 1 7.0 17.0 0.00 0.00 0.00 84 1016.2
20260502060956 64 5 9.0 18.0 0.00 0.00 0.00 84 1016.1
20260502060452 64 354 9.0 16.0 0.00 0.00 0.00 84 1016.2
20260502055949 65 352 4.0 13.0 0.00 0.00 0.00 84 1016.2
20260502055447 65 343 5.0 16.0 0.00 0.00 0.00 83 1016.1
20260502054946 65 323 4.0 18.0 0.00 0.00 0.00 83 1016.1
20260502054444 65 348 9.0 12.0 0.00 0.00 0.00 83 1016.0
20260502053941 65 348 6.0 16.0 0.00 0.00 0.00 83 1016.2
20260502053438 65 333 13.0 18.0 0.00 0.00 0.00 83 1016.2
20260502052935 65 4 12.0 17.0 0.00 0.00 0.00 83 1016.0
20260502052433 66 24 7.0 17.0 0.00 0.00 0.00 83 1015.9
20260502051932 66 11 5.0 18.0 0.00 0.00 0.00 83 1015.9
20260502051429 66 350 9.0 12.0 0.00 0.00 0.00 83 1016.0
20260502050926 66 349 8.0 17.0 0.00 0.00 0.00 83 1015.9
20260502050423 66 339 10.0 19.0 0.00 0.00 0.00 83 1015.8
20260502045920 67 356 3.0 15.0 0.00 0.00 0.00 82 1015.8
20260502045416 67 357 11.0 13.0 0.00 0.00 0.00 82 1015.9
20260502044914 67 1 6.0 16.0 0.00 0.00 0.00 82 1015.6
20260502044409 67 35 6.0 13.0 0.00 0.00 0.00 82 1015.7
20260502043906 67 339 4.0 19.0 0.00 0.00 0.00 83 1015.6
20260502043404 67 0 7.0 14.0 0.00 0.00 0.00 83 1015.6
20260502042903 67 341 10.0 15.0 0.00 0.00 0.00 82 1015.5
20260502042401 67 25 6.0 14.0 0.00 0.00 0.00 82 1015.4
20260502041858 67 5 7.0 18.0 0.00 0.00 0.00 82 1015.2
20260502041355 67 1 10.0 15.0 0.00 0.00 0.00 83 1015.4
20260502040853 67 342 9.0 13.0 0.00 0.00 0.00 82 1015.4
20260502040349 67 358 5.0 13.0 0.00 0.00 0.00 82 1015.1
20260502035845 67 44 5.0 18.0 0.00 0.00 0.00 83 1015.1
20260502035342 67 344 5.0 13.0 0.00 0.00 0.00 83 1014.9
20260502034839 67 15 5.0 14.0 0.00 0.00 0.00 83 1014.8
20260502034338 67 356 9.0 14.0 0.00 0.00 0.00 83 1014.7
20260502033836 68 350 12.0 15.0 0.00 0.00 0.00 83 1014.7
20260502033333 68 346 15.0 19.0 0.00 0.00 0.00 83 1014.7
20260502032830 68 347 4.0 16.0 0.00 0.00 0.00 83 1014.7
20260502032326 68 340 4.0 12.0 0.00 0.00 0.00 82 1014.5
20260502031824 68 355 8.0 12.0 0.00 0.00 0.00 82 1014.3
20260502031322 68 353 13.0 19.0 0.00 0.00 0.00 81 1014.2
20260502030820 69 331 8.0 11.0 0.00 0.00 0.00 82 1014.2
20260502030318 69 334 12.0 13.0 0.00 0.00 0.00 82 1014.3
20260502025815 69 357 7.0 16.0 0.00 0.00 0.00 82 1013.9
20260502025313 69 358 4.0 10.0 0.00 0.00 0.00 82 1013.6
20260502024810 69 15 5.0 14.0 0.00 0.00 0.00 82 1013.7
20260502024308 69 332 4.0 12.0 0.00 0.00 0.00 82 1013.5
20260502023806 69 25 3.0 9.0 0.00 0.00 0.00 82 1013.2
20260502023303 69 4 11.0 11.0 0.00 0.00 0.00 81 1012.9
20260502022800 69 28 11.0 12.0 0.00 0.00 0.00 81 1012.9
20260502022257 69 352 6.0 13.0 0.00 0.00 0.00 81 1012.7
20260502021754 69 38 3.0 11.0 0.00 0.00 0.00 81 1012.6
20260502021251 69 37 10.0 14.0 0.00 0.00 0.00 81 1012.3
20260502020748 69 35 7.0 14.0 0.00 0.00 0.00 81 1012.3
20260502020246 69 345 6.0 10.0 0.00 0.00 0.00 82 1012.0
20260502015743 69 35 4.0 11.0 0.00 0.00 0.00 83 1012.1
20260502015239 69 11 3.0 12.0 0.00 0.00 0.00 83 1012.0
20260502014737 69 345 3.0 12.0 0.00 0.00 0.00 83 1011.8
20260502014233 69 5 6.0 14.0 0.00 0.00 0.00 83 1011.9
20260502013730 69 351 8.0 9.0 0.00 0.00 0.00 83 1012.0
20260502013225 69 8 5.0 14.0 0.00 0.00 0.00 82 1011.8
20260502012722 69 30 10.0 17.0 0.00 0.00 0.00 83 1011.7
20260502012221 70 17 3.0 12.0 0.00 0.00 0.00 83 1011.6
20260502011717 69 346 10.0 16.0 0.00 0.00 0.00 83 1011.2
20260502011213 69 4 10.0 21.0 0.00 0.00 0.00 83 1011.2
20260502010711 70 1 15.0 17.0 0.00 0.00 0.00 84 1011.2
20260502010207 70 36 7.0 13.0 0.00 0.00 0.00 85 1010.9
20260502005704 70 37 6.0 13.0 0.00 0.00 0.00 85 1010.9
20260502005202 70 345 4.0 17.0 0.00 0.00 0.00 86 1010.9
20260502004658 70 304 4.0 15.0 0.00 0.00 0.00 86 1010.7
20260502004154 69 9 6.0 15.0 0.00 0.00 0.00 86 1010.8
20260502003653 69 350 15.0 16.0 0.00 0.00 0.00 86 1010.6
20260502003149 70 352 6.0 17.0 0.00 0.00 0.00 86 1010.6
20260502002645 70 343 9.0 12.0 0.00 0.00 0.00 86 1010.5
20260502002143 70 359 12.0 16.0 0.00 0.00 0.00 86 1010.5
20260502001640 70 355 8.0 12.0 0.00 0.00 0.00 85 1010.3
20260502001138 71 4 7.0 11.0 0.00 0.00 0.00 84 1010.1
20260502000636 71 352 6.0 10.0 0.00 0.00 0.00 84 1010.2
20260502000133 71 352 6.0 17.0 0.00 0.00 0.00 84 1010.1
20260501235629 71 5 10.0 16.0 0.00 0.00 0.00 85 1010.1
20260501235125 71 8 11.0 13.0 0.00 0.00 0.00 86 1009.9
20260501234620 71 336 9.0 13.0 0.00 0.00 0.00 85 1009.8
20260501234118 71 25 5.0 15.0 0.00 0.00 0.00 85 1009.7
20260501233616 71 6 9.0 18.0 0.00 0.00 0.00 85 1009.4
20260501233113 72 355 6.0 15.0 0.00 0.00 0.00 85 1009.5
20260501232609 72 336 12.0 14.0 0.00 0.00 0.00 84 1009.0
20260501232107 72 343 12.0 19.0 0.00 0.00 0.00 84 1009.0
20260501231604 73 9 9.0 15.0 0.00 0.00 0.00 83 1008.8
20260501231102 73 356 17.0 22.0 0.00 0.00 0.00 82 1008.9
20260501230600 73 343 10.0 17.0 0.00 0.00 0.00 82 1008.6
20260501230058 74 355 7.0 19.0 0.00 0.00 0.00 82 1008.4
20260501225555 74 335 10.0 18.0 0.00 0.00 0.00 84 1008.2
20260501225051 74 322 12.0 17.0 0.00 0.00 0.00 84 1008.2
20260501224549 75 332 6.0 20.0 0.00 0.00 0.00 82 1008.1
20260501224046 75 6 12.0 19.0 0.00 0.00 0.00 81 1008.1